Time,TemperatureF,DewpointF,PressureIn,WindDirection,WindDirectionDegrees,WindSpeedMPH,WindSpeedGustMPH,Humidity,HourlyPrecipIn,Conditions,Clouds,dailyrainin,SoftwareType,DateUTC
2013-07-21 00:09:00,73.7,70.0,29.84,WSW,258,0.0,-999.0,89,-99.99,,,0.00,weatherlink.com 1.10,2013-07-21 04:09:00,
2013-07-21 00:24:00,73.5,70.0,29.84,WSW,258,0.0,-999.0,89,-99.99,,,0.00,weatherlink.com 1.10,2013-07-21 04:24:00,
2013-07-21 00:39:00,73.5,71.0,29.84,WSW,258,0.0,-999.0,90,-99.99,,,0.00,weatherlink.com 1.10,2013-07-21 04:39:00,
2013-07-21 00:54:00,73.5,71.0,29.85,WSW,258,0.0,-999.0,90,-99.99,,,0.00,weatherlink.com 1.10,2013-07-21 04:54:00,
2013-07-21 01:09:00,73.6,71.0,29.84,WSW,258,0.0,-999.0,90,-99.99,,,0.00,weatherlink.com 1.10,2013-07-21 05:09:00,
2013-07-21 01:24:00,73.3,70.0,29.85,WSW,258,0.0,-999.0,90,-99.99,,,0.00,weatherlink.com 1.10,2013-07-21 05:24:00,
2013-07-21 01:39:00,72.9,70.0,29.85,WSW,258,0.0,-999.0,90,-99.99,,,0.00,weatherlink.com 1.10,2013-07-21 05:39:00,
2013-07-21 01:54:00,72.4,69.0,29.85,WSW,258,0.0,-999.0,90,-99.99,,,0.00,weatherlink.com 1.10,2013-07-21 05:54:00,
2013-07-21 02:09:00,72.2,69.0,29.85,WSW,258,0.0,-999.0,90,-99.99,,,0.00,weatherlink.com 1.10,2013-07-21 06:09:00,
2013-07-21 02:24:00,71.8,69.0,29.85,WSW,258,0.0,-999.0,91,-99.99,,,0.00,weatherlink.com 1.10,2013-07-21 06:24:00,
2013-07-21 02:39:00,71.5,69.0,29.85,WSW,258,0.0,-999.0,91,-99.99,,,0.00,weatherlink.com 1.10,2013-07-21 06:39:00,
2013-07-21 02:54:00,71.2,69.0,29.86,WSW,258,0.0,-999.0,91,-99.99,,,0.00,weatherlink.com 1.10,2013-07-21 06:54:00,
2013-07-21 03:09:00,71.0,68.0,29.86,WSW,258,0.0,-999.0,91,-99.99,,,0.00,weatherlink.com 1.10,2013-07-21 07:09:00,
2013-07-21 03:24:00,70.4,68.0,29.85,WSW,258,0.0,-999.0,91,-99.99,,,0.00,weatherlink.com 1.10,2013-07-21 07:24:00,
2013-07-21 03:39:00,70.1,67.0,29.86,WSW,258,0.0,-999.0,91,-99.99,,,0.00,weatherlink.com 1.10,2013-07-21 07:39:00,
2013-07-21 03:55:00,69.8,67.0,29.86,WSW,258,0.0,-999.0,92,-99.99,,,0.00,weatherlink.com 1.10,2013-07-21 07:55:00,
2013-07-21 04:10:00,69.4,67.0,29.86,WSW,258,0.0,-999.0,92,-99.99,,,0.00,weatherlink.com 1.10,2013-07-21 08:10:00,
2013-07-21 04:25:00,69.1,67.0,29.86,WSW,258,0.0,-999.0,92,-99.99,,,0.00,weatherlink.com 1.10,2013-07-21 08:25:00,
2013-07-21 04:40:00,69.1,67.0,29.86,WSW,258,0.0,-999.0,92,-99.99,,,0.00,weatherlink.com 1.10,2013-07-21 08:40:00,
2013-07-21 04:55:00,69.1,67.0,29.86,WSW,258,0.0,-999.0,93,-99.99,,,0.00,weatherlink.com 1.10,2013-07-21 08:55:00,
2013-07-21 05:10:00,68.9,67.0,29.87,WSW,258,0.0,-999.0,93,-99.99,,,0.00,weatherlink.com 1.10,2013-07-21 09:10:00,
2013-07-21 05:25:00,68.6,67.0,29.88,WSW,258,0.0,-999.0,93,-99.99,,,0.00,weatherlink.com 1.10,2013-07-21 09:25:00,
2013-07-21 05:40:00,68.4,66.0,29.88,WSW,258,0.0,-999.0,93,-99.99,,,0.00,weatherlink.com 1.10,2013-07-21 09:40:00,
2013-07-21 05:55:00,68.2,66.0,29.88,WSW,258,0.0,-999.0,93,-99.99,,,0.00,weatherlink.com 1.10,2013-07-21 09:55:00,
2013-07-21 06:10:00,67.9,66.0,29.89,WSW,258,0.0,-999.0,93,-99.99,,,0.00,weatherlink.com 1.10,2013-07-21 10:10:00,
2013-07-21 06:25:00,67.8,66.0,29.89,WSW,258,0.0,-999.0,93,-99.99,,,0.00,weatherlink.com 1.10,2013-07-21 10:25:00,
2013-07-21 06:40:00,67.7,66.0,29.90,WSW,258,0.0,-999.0,93,-99.99,,,0.00,weatherlink.com 1.10,2013-07-21 10:40:00,
2013-07-21 06:55:00,67.9,66.0,29.90,WSW,258,0.0,-999.0,94,-99.99,,,0.00,weatherlink.com 1.10,2013-07-21 10:55:00,
2013-07-21 07:10:00,68.3,67.0,29.91,WSW,258,0.0,-999.0,94,-99.99,,,0.00,weatherlink.com 1.10,2013-07-21 11:10:00,
2013-07-21 07:25:00,68.7,67.0,29.91,WSW,258,0.0,-999.0,94,-99.99,,,0.00,weatherlink.com 1.10,2013-07-21 11:25:00,
2013-07-21 07:40:00,69.1,67.0,29.91,WSW,258,0.0,-999.0,94,-99.99,,,0.00,weatherlink.com 1.10,2013-07-21 11:40:00,
2013-07-21 07:55:00,69.8,68.0,29.92,WSW,258,0.0,-999.0,94,-99.99,,,0.00,weatherlink.com 1.10,2013-07-21 11:55:00,
2013-07-21 08:10:00,70.7,69.0,29.92,WSW,258,0.0,-999.0,94,-99.99,,,0.00,weatherlink.com 1.10,2013-07-21 12:10:00,
2013-07-21 08:25:00,71.4,70.0,29.92,WSW,258,0.0,-999.0,94,-99.99,,,0.00,weatherlink.com 1.10,2013-07-21 12:25:00,
2013-07-21 08:40:00,72.7,69.0,29.92,WSW,258,0.0,-999.0,89,-99.99,,,0.00,weatherlink.com 1.10,2013-07-21 12:40:00,
2013-07-21 08:55:00,74.6,68.0,29.92,SSW,213,0.0,-999.0,80,-99.99,,,0.00,weatherlink.com 1.10,2013-07-21 12:55:00,
2013-07-21 09:10:00,76.2,68.0,29.92,SSW,211,0.0,-999.0,75,-99.99,,,0.00,weatherlink.com 1.10,2013-07-21 13:10:00,
2013-07-21 09:25:00,78.1,68.0,29.91,SSE,161,0.0,-999.0,72,-99.99,,,0.00,weatherlink.com 1.10,2013-07-21 13:25:00,
2013-07-21 09:40:00,78.8,68.0,29.91,SE,126,0.0,-999.0,69,-99.99,,,0.00,weatherlink.com 1.10,2013-07-21 13:40:00,
2013-07-21 09:55:00,79.4,67.0,29.91,ENE,62,0.0,-999.0,67,-99.99,,,0.00,weatherlink.com 1.10,2013-07-21 13:55:00,
2013-07-21 10:10:00,79.8,68.0,29.91,ENE,62,0.0,-999.0,68,-99.99,,,0.00,weatherlink.com 1.10,2013-07-21 14:10:00,
2013-07-21 10:25:00,80.1,66.0,29.92,NE,53,0.0,-999.0,62,-99.99,,,0.00,weatherlink.com 1.10,2013-07-21 14:25:00,
2013-07-21 10:40:00,81.2,66.0,29.92,NE,53,1.0,-999.0,60,-99.99,,,0.00,weatherlink.com 1.10,2013-07-21 14:40:00,
2013-07-21 10:55:00,82.2,64.0,29.92,North,11,0.0,-999.0,55,-99.99,,,0.00,weatherlink.com 1.10,2013-07-21 14:55:00,
2013-07-21 11:10:00,82.3,66.0,29.93,South,185,0.0,-999.0,58,-99.99,,,0.00,weatherlink.com 1.10,2013-07-21 15:10:00,
2013-07-21 11:26:00,82.8,67.0,29.93,South,184,0.0,-999.0,59,-99.99,,,0.00,weatherlink.com 1.10,2013-07-21 15:26:00,
2013-07-21 11:41:00,83.6,65.0,29.93,North,5,0.0,-999.0,53,-99.99,,,0.00,weatherlink.com 1.10,2013-07-21 15:41:00,
2013-07-21 11:56:00,83.5,62.0,29.93,North,5,0.0,-999.0,49,-99.99,,,0.00,weatherlink.com 1.10,2013-07-21 15:56:00,
2013-07-21 12:11:00,84.1,65.0,29.93,NNW,327,2.0,-999.0,52,-99.99,,,0.00,weatherlink.com 1.10,2013-07-21 16:11:00,
2013-07-21 12:26:00,85.7,65.0,29.92,WNW,282,1.0,-999.0,50,-99.99,,,0.00,weatherlink.com 1.10,2013-07-21 16:26:00,
2013-07-21 12:41:00,86.3,64.0,29.92,North,360,2.0,-999.0,48,-99.99,,,0.00,weatherlink.com 1.10,2013-07-21 16:41:00,
2013-07-21 12:56:00,86.6,66.0,29.93,WNW,302,3.0,-999.0,50,-99.99,,,0.00,weatherlink.com 1.10,2013-07-21 16:56:00,
2013-07-21 13:11:00,86.9,67.0,29.92,NE,37,2.0,-999.0,51,-99.99,,,0.00,weatherlink.com 1.10,2013-07-21 17:11:00,
2013-07-21 13:26:00,87.3,65.0,29.92,ESE,119,0.0,-999.0,47,-99.99,,,0.00,weatherlink.com 1.10,2013-07-21 17:26:00,
2013-07-21 13:41:00,88.2,66.0,29.92,North,5,0.0,-999.0,48,-99.99,,,0.00,weatherlink.com 1.10,2013-07-21 17:41:00,
2013-07-21 13:56:00,89.3,66.0,29.92,WSW,256,0.0,-999.0,47,-99.99,,,0.00,weatherlink.com 1.10,2013-07-21 17:56:00,
2013-07-21 14:11:00,89.9,64.0,29.92,NW,324,0.0,-999.0,42,-99.99,,,0.00,weatherlink.com 1.10,2013-07-21 18:11:00,
2013-07-21 14:26:00,90.6,64.0,29.91,SSE,167,0.0,-999.0,41,-99.99,,,0.00,weatherlink.com 1.10,2013-07-21 18:26:00,
2013-07-21 14:41:00,90.9,63.0,29.91,WNW,296,0.0,-999.0,39,-99.99,,,0.00,weatherlink.com 1.10,2013-07-21 18:41:00,
2013-07-21 14:56:00,90.7,64.0,29.91,South,180,2.0,-999.0,41,-99.99,,,0.00,weatherlink.com 1.10,2013-07-21 18:56:00,
2013-07-21 15:11:00,91.3,64.0,29.90,South,180,0.0,-999.0,40,-99.99,,,0.00,weatherlink.com 1.10,2013-07-21 19:11:00,
2013-07-21 15:26:00,91.7,63.0,29.90,NE,51,0.0,-999.0,39,-99.99,,,0.00,weatherlink.com 1.10,2013-07-21 19:26:00,
2013-07-21 15:41:00,92.5,66.0,29.89,ENE,62,0.0,-999.0,42,-99.99,,,0.00,weatherlink.com 1.10,2013-07-21 19:41:00,
2013-07-21 15:56:00,93.5,64.0,29.88,SSW,193,0.0,-999.0,37,-99.99,,,0.00,weatherlink.com 1.10,2013-07-21 19:56:00,
2013-07-21 16:11:00,92.9,63.0,29.88,SSW,208,0.0,-999.0,37,-99.99,,,0.00,weatherlink.com 1.10,2013-07-21 20:11:00,
2013-07-21 16:26:00,92.8,64.0,29.88,South,188,0.0,-999.0,38,-99.99,,,0.00,weatherlink.com 1.10,2013-07-21 20:26:00,
2013-07-21 16:41:00,91.9,63.0,29.88,ENE,66,0.0,-999.0,38,-99.99,,,0.00,weatherlink.com 1.10,2013-07-21 20:41:00,
2013-07-21 16:56:00,92.7,63.0,29.87,South,188,2.0,-999.0,37,-99.99,,,0.00,weatherlink.com 1.10,2013-07-21 20:56:00,
2013-07-21 17:11:00,93.2,63.0,29.87,SSW,210,0.0,-999.0,36,-99.99,,,0.00,weatherlink.com 1.10,2013-07-21 21:11:00,
2013-07-21 17:26:00,93.7,61.0,29.87,South,178,0.0,-999.0,34,-99.99,,,0.00,weatherlink.com 1.10,2013-07-21 21:26:00,
2013-07-21 17:41:00,94.4,62.0,29.87,South,180,0.0,-999.0,34,-99.99,,,0.00,weatherlink.com 1.10,2013-07-21 21:41:00,
2013-07-21 17:56:00,95.1,63.0,29.87,South,180,0.0,-999.0,35,-99.99,,,0.00,weatherlink.com 1.10,2013-07-21 21:56:00,
2013-07-21 18:11:00,95.1,66.0,29.86,South,180,0.0,-999.0,38,-99.99,,,0.00,weatherlink.com 1.10,2013-07-21 22:11:00,
2013-07-21 18:26:00,94.8,68.0,29.86,South,180,0.0,-999.0,41,-99.99,,,0.00,weatherlink.com 1.10,2013-07-21 22:26:00,
2013-07-21 18:41:00,94.5,69.0,29.86,South,180,0.0,-999.0,43,-99.99,,,0.00,weatherlink.com 1.10,2013-07-21 22:41:00,
2013-07-21 18:56:00,93.8,67.0,29.86,South,176,0.0,-999.0,41,-99.99,,,0.00,weatherlink.com 1.10,2013-07-21 22:56:00,
2013-07-21 19:11:00,93.4,67.0,29.86,South,176,0.0,-999.0,42,-99.99,,,0.00,weatherlink.com 1.10,2013-07-21 23:11:00,
2013-07-21 19:26:00,90.8,70.0,29.86,South,176,0.0,-999.0,50,-99.99,,,0.00,weatherlink.com 1.10,2013-07-21 23:26:00,
2013-07-21 19:41:00,88.8,68.0,29.86,South,176,0.0,-999.0,50,-99.99,,,0.00,weatherlink.com 1.10,2013-07-21 23:41:00,
2013-07-21 19:56:00,87.0,67.0,29.87,South,176,0.0,-999.0,51,-99.99,,,0.00,weatherlink.com 1.10,2013-07-21 23:56:00,
2013-07-21 20:11:00,85.2,66.0,29.87,South,176,0.0,-999.0,52,-99.99,,,0.00,weatherlink.com 1.10,2013-07-22 00:11:00,
2013-07-21 20:26:00,83.5,67.0,29.89,South,176,0.0,-999.0,57,-99.99,,,0.00,weatherlink.com 1.10,2013-07-22 00:26:00,
2013-07-21 20:41:00,81.8,66.0,29.89,South,176,0.0,-999.0,59,-99.99,,,0.00,weatherlink.com 1.10,2013-07-22 00:41:00,
2013-07-21 20:56:00,80.0,66.0,29.89,South,176,0.0,-999.0,63,-99.99,,,0.00,weatherlink.com 1.10,2013-07-22 00:56:00,
2013-07-21 21:11:00,78.7,66.0,29.89,South,176,0.0,-999.0,66,-99.99,,,0.00,weatherlink.com 1.10,2013-07-22 01:11:00,
2013-07-21 21:26:00,77.5,66.0,29.89,South,176,0.0,-999.0,68,-99.99,,,0.00,weatherlink.com 1.10,2013-07-22 01:26:00,
2013-07-21 21:41:00,76.6,67.0,29.89,South,176,0.0,-999.0,71,-99.99,,,0.00,weatherlink.com 1.10,2013-07-22 01:41:00,
2013-07-21 21:56:00,75.9,66.0,29.90,South,176,0.0,-999.0,72,-99.99,,,0.00,weatherlink.com 1.10,2013-07-22 01:56:00,
2013-07-21 22:11:00,75.3,67.0,29.91,South,176,0.0,-999.0,75,-99.99,,,0.00,weatherlink.com 1.10,2013-07-22 02:11:00,
2013-07-21 22:26:00,74.8,66.0,29.90,South,176,0.0,-999.0,75,-99.99,,,0.00,weatherlink.com 1.10,2013-07-22 02:26:00,
2013-07-21 22:41:00,74.6,67.0,29.90,South,176,0.0,-999.0,76,-99.99,,,0.00,weatherlink.com 1.10,2013-07-22 02:41:00,
2013-07-21 22:56:00,74.4,67.0,29.91,South,176,0.0,-999.0,77,-99.99,,,0.00,weatherlink.com 1.10,2013-07-22 02:56:00,
2013-07-21 23:11:00,74.2,67.0,29.91,South,176,0.0,-999.0,77,-99.99,,,0.00,weatherlink.com 1.10,2013-07-22 03:11:00,
2013-07-21 23:26:00,73.9,67.0,29.91,South,176,0.0,-999.0,78,-99.99,,,0.00,weatherlink.com 1.10,2013-07-22 03:26:00,
2013-07-21 23:41:00,73.8,67.0,29.91,South,176,0.0,-999.0,79,-99.99,,,0.00,weatherlink.com 1.10,2013-07-22 03:41:00,
2013-07-21 23:57:00,73.7,67.0,29.91,South,176,0.0,-999.0,79,-99.99,,,0.00,weatherlink.com 1.10,2013-07-22 03:57:00,